Content
SEND FEEDBACK

Daily
Averages
Monthly
Summary
United States of America

REDDING, CALIFORNIA


Home > North America > United States > California
Elevation: 535 feet     Latitude: 40 31N     Longitude: 122 18W

WEATHER
 
SELECT A DAY
Number of Records: 190,547;   Date Range: 1/1/95 - 11/21/14
 
SHARE

PRINT THIS DATA

[ ← Previous Day ]
WEATHER ALMANAC - MARCH 19, 2013
[ Next Day → ]
[ °C ]   °F
Weather ElementAverageHighLow
Temperature56.6 °F64.9 °F (1:53 pm)50 °F (7:53 am)
Dewpoint43.8 °F52 °F (6:53 pm)37 °F (1:53 am)
Humidity64.5 %89 % (7:53 pm)39 % (1:53 pm)
Barometer30.04 in30.07 in (7:53 am)30.00 in (7:53 pm)
Wind Speed3.5 mph17.3 mph (10:53 pm)
Weather ElementAverage
Visibility9.9 mi
Wind DirectionE (88.3 °)

Weather ElementTotal
Precipitation0.12 in
Heating Degree Days7.6 (Base 65)
Growing Degree Days7.5 (Base 50)
Averaged from 23 records on March 19, 2013
WEATHER CONDITIONS BREAKOUT
WIND DIRECTION BREAKOUT
WEATHER BY HOUR - MARCH 19, 2013
[ °C ]   °F
Local TimeTemperatureDewpointHumidityBarometerVisibilityWind DirectionWind SpeedGust SpeedPrecipitationEventsConditions
1:53 AM55.9 °F37.0 °F49 %30.04 in10.0 miCalmOvercast
2:53 AM53.1 °F37.0 °F55 %30.05 in10.0 miNW (320°)3.5 mphMostly Cloudy
3:53 AM54.0 °F39.9 °F59 %30.04 in10.0 miNNE (30°)4.6 mphOvercast
4:53 AM53.1 °F39.9 °F61 %30.05 in10.0 miNorth (10°)5.8 mphOvercast
5:53 AM53.1 °F37.9 °F57 %30.05 in10.0 miCalmMostly Cloudy
6:53 AM51.1 °F39.0 °F63 %30.06 in10.0 miCalmMostly Cloudy
7:53 AM50.0 °F39.0 °F66 %30.07 in10.0 miNW (310°)4.6 mphScattered Clouds
8:53 AM55.9 °F39.9 °F55 %30.07 in10.0 miCalmClear
9:53 AM60.1 °F42.1 °F51 %30.07 in10.0 miNE (50°)3.5 mphScattered Clouds
10:53 AM63.0 °F41.0 °F45 %30.07 in10.0 miCalmMostly Cloudy
11:53 AM64.0 °F39.0 °F40 %30.07 in10.0 miCalmMostly Cloudy
12:53 PM64.0 °F39.9 °F41 %30.05 in10.0 miCalmOvercast
1:53 PM64.9 °F39.0 °F39 %30.05 in10.0 miSSW (200°)9.2 mphOvercast
2:53 PM61.0 °F46.9 °F60 %30.06 in7.0 miSW (230°)4.6 mph0.01 inRainLight Rain
3:53 PM55.9 °F51.1 °F84 %30.07 in10.0 miCalm0.09 inRainLight Rain
4:53 PM57.0 °F51.1 °F81 %30.05 in10.0 miEast (90°)4.6 mph0.00 inOvercast
5:53 PM55.9 °F51.1 °F84 %30.04 in10.0 miCalm0.00 inOvercast
6:53 PM55.9 °F52.0 °F87 %30.02 in10.0 miCalmOvercast
7:53 PM55.0 °F52.0 °F89 %30.00 in10.0 miCalmOvercast
8:53 PM55.0 °F51.1 °F86 %30.01 in10.0 miWest (280°)3.5 mph0.01 inRainLight Rain
9:53 PM55.0 °F51.1 °F86 %30.01 in10.0 miSSE (160°)4.6 mph0.00 inOvercast
10:53 PM55.0 °F46.9 °F74 %30.00 in10.0 miSSE (160°)17.3 mph0.00 inRainLight Rain
11:53 PM53.1 °F44.1 °F71 %30.01 in10.0 miSouth (190°)15.0 mph0.01 inRainLight Rain
Hourly data recorded from KRDD, located miles away from Redding, California







STORIES FROM OUR PARTNERS